Weather in Tatsinskiy

Russia / Rostov Oblast     48°11′48″N   41°21′05″E
В апреле 2022 года жителям России запретили посещать сайт meteo.paraplan.net по решению Генеральной прокуратуры. Аудитория сайта уменьшилась в 10 раз. Владельцы сайта не видят смысла в поддержке погодного сервера в таких условиях. Сайт будет закрыт в октябре.
temp.,
°C
wind,
m/s
gust,
m/s
humid.,
%
clouds,
%
prec.,
mm/h
press.,
hPa
HPBL,
m
25 september, sun
sun2500:00+10wsw387729 2.6 1013488
03:00+9wsw510797 2.9 1014287
06:00+9wsw6138069 0.0 1014468
09:00+12wsw8126564 0.0 10151085
12:00+14w10145198 0.0 10151921
15:00+17w1014379 0.0 10142406
18:00+15w6124210 0.0 1015388
21:00+12wsw511515 0.0 1017271
26 september, mon
mon2600:00+10wsw4105994 0.0 1017214
03:00+10wsw4106134 0.0 1018187
06:00+10sw3861100 0.0 1018133
09:00+14wsw354891 0.0 1018356
12:00+18sw575191 0.1 10181500
15:00+18wsw5752100 0.2 10171315
18:00+17ssw2464100 0.2 101792
21:00+14ssw487455 0.2 1017133
27 september, tue
tue2700:00+14s3375100 0.0 101745
03:00+13s356999 0.0 101695
06:00+12sse3471100 0.0 101573
09:00+16sse4649100 0.0 1014276
12:00+19sse5653100 0.0 1013645
15:00+21sse4552100 0.0 10111122
18:00+19e3460100 0.0 101046
21:00+17se4663100 0.0 100991
28 september, wed
wed2800:00+15sse3467100 0.0 100858
03:00+15se3667100 0.0 100797
06:00+15se4975100 0.0 1006173
09:00+19sse61067100 0.0 1006391
12:00+24sse7950100 0.0 10051015
15:00+24s7941100 0.0 1004886
18:00+21s51152100 0.0 1004435
21:00+19sw612626 0.1 1005428
29 september, thu
thu2900:00+16wsw49862 0.0 1006195
03:00+15sw359232 0.1 1007103
06:00+14sw37930 0.1 1008146
09:00+19w46700 0.1 1009502
12:00+22w565535 0.0 10091383
15:00+23nw564518 0.1 10101728
18:00+19wnw464958 0.0 1012111
21:00+17nw3658100 0.0 1014104